Torna al catalogo

STARLINK-3701

AttivoComunicazioniVLEO
NORAD 52095·PAYLOAD·🇺🇸 United States

Lanciato Mar 19, 2022 da Cape Canaveral Space Force Station

Loading…

Prossimi Passaggi (prossime 24 ore)

TLE

AggiornatoSource: CelesTrak SupGP

Epoca: Sep 14, 2026, 21:16 UTC

1 52095C 22029H   26257.88659722  .00002059  00000+0  60825-4 0  2572
2 52095  53.1587 303.9001 0001209  90.0776  32.3567 15.34399308    11

Traccia STARLINK-3701 in tempo reale con AllMySat

Download on the App Store